Cosmos 773 Rocket - Orbit

View from above orbital plane
View from above orbital plane
View from above satellite
View from above satellite

Ground track
Ground track

The orbit data is extracted from the following two-line orbital elements,

1 08344U 75094B   13168.84335412  .00000061  00000-0  28621-4 0  2110
2 08344 074.0596 295.6160 0022152 205.8436 321.7558 14.38561919975651
Epoch (UTC): 17 June 2013 20:14:25
Eccentricity: 0.0022152
inclination: 74.0596°
perigee height: 747 km
apogee height: 779 km
right ascension of ascending node: 295.6160°
argument of perigee: 205.8436°
revolutions per day: 14.38561919
mean anomaly at epoch: 321.7558°
orbit number at epoch: 97565

The dashed part of the orbit path shows where the satellite is in the earth's shadow,  

Developed and maintained by Chris Peat, Heavens-Above GmbH. Please read the updated FAQ before sending e-mail. Imprint. DLR